H1 CPF 2 NER 2025 10 17 9 290 01 glonass142 H2 2001801 9142 45358 2025 10 17 0 0 0 2025 10 20 23 45 0 900 1 1 0 0 0 1 H9 10 0 60965 0.00000 0 -13443760.176 4935307.611 -21077989.686 10 0 60965 900.00000 0 -12342760.953 2498655.163 -22154782.734 10 0 60965 1800.00000 0 -11385843.379 -111228.498 -22800096.313 10 0 60965 2700.00000 0 -10606367.838 -2833545.867 -23001446.870 10 0 60965 3600.00000 0 -10026657.128 -5602153.223 -22755016.096 10 0 60965 4500.00000 0 -9657120.035 -8348080.628 -22065717.643 10 0 60965 5400.00000 0 -9495896.492 -11002173.676 -20947092.148 10 0 60965 6300.00000 0 -9529038.079 -13497746.980 -19421033.303 10 0 60965 7200.00000 0 -9731214.838 -15773139.074 -17517350.953 10 0 60965 8100.00000 0 -10066917.202 -17774062.803 -15273180.423 10 0 60965 9000.00000 0 -10492100.884 -19455654.027 -12732250.146 10 0 60965 9900.00000 0 -10956204.054 -20784134.277 -9944022.476 10 0 60965 10800.00000 0 -11404450.515 -21738019.363 -6962724.908 10 0 60965 11700.00000 0 -11780340.793 -22308825.087 -3846291.067 10 0 60965 12600.00000 0 -12028225.299 -22501242.333 -655232.476 10 0 60965 13500.00000 0 -12095850.609 -22332776.093 2548536.614 10 0 60965 14400.00000 0 -11936771.242 -21832865.337 5702898.386 10 0 60965 15300.00000 0 -11512525.296 -21041522.260 8746731.261 10 0 60965 16200.00000 0 -10794482.445 -20007549.241 11621087.344 10 0 60965 17100.00000 0 -9765286.672 -18786409.216 14270325.180 10 0 60965 18000.00000 0 -8419833.209 -17437839.149 16643176.566 10 0 60965 18900.00000 0 -6765738.565 -16023306.619 18693727.734 10 0 60965 19800.00000 0 -4823283.509 -14603415.527 20382297.048 10 0 60965 20700.00000 0 -2624830.606 -13235368.716 21676193.338 10 0 60965 21600.00000 0 -213739.396 -11970592.554 22550341.349 10 0 60965 22500.00000 0 2357177.171 -10852621.636 22987763.139 10 0 60965 23400.00000 0 5027592.718 -9915330.928 22979906.719 10 0 60965 24300.00000 0 7731925.315 -9181588.344 22526815.872 10 0 60965 25200.00000 0 10401821.667 -8662383.486 21637137.645 10 0 60965 26100.00000 0 12968766.488 -8356468.807 20327966.766 10 0 60965 27000.00000 0 15366710.524 -8250528.393 18624528.943 10 0 60965 27900.00000 0 17534609.445 -8319867.812 16559707.839 10 0 60965 28800.00000 0 19418768.892 -8529596.830 14173423.376 10 0 60965 29700.00000 0 20974898.435 -8836256.128 11511871.874 10 0 60965 30600.00000 0 22169788.684 -9189820.304 8626641.323 10 0 60965 31500.00000 0 22982540.942 -9535993.225 5573717.899 10 0 60965 32400.00000 0 23405297.201 -9818698.986 2412402.245 10 0 60965 33300.00000 0 23443438.964 -9982662.855 -795843.667 10 0 60965 34200.00000 0 23115245.723 -9975972.201 -3988596.428 10 0 60965 35100.00000 0 22451026.840 -9752507.719 -7103693.855 10 0 60965 36000.00000 0 21491763.056 -9274140.325 -10080455.636 10 0 60965 36900.00000 0 20287314.906 -8512598.826 -12860876.922 10 0 60965 37800.00000 0 18894273.983 -7450927.265 -15390770.345 10 0 60965 38700.00000 0 17373548.309 -6084468.363 -17620832.966 10 0 60965 39600.00000 0 15787784.511 -4421329.680 -19507616.264 10 0 60965 40500.00000 0 14198736.345 -2482311.266 -21014379.481 10 0 60965 41400.00000 0 12664691.239 -300296.570 -22111809.222 10 0 60965 42300.00000 0 11238063.800 2080868.693 -22778591.073 10 0 60965 43200.00000 0 9963257.799 4607963.326 -23001822.262 10 0 60965 44100.00000 0 8874886.386 7220376.972 -22777257.676 10 0 60965 45000.00000 0 7996424.811 9852413.050 -22109384.955 10 0 60965 45900.00000 0 7339351.278 12435812.155 -21011327.851 10 0 60965 46800.00000 0 6902810.731 14902390.662 -19504580.411 10 0 60965 47700.00000 0 6673814.076 17186684.546 -17618577.835 10 0 60965 48600.00000 0 6627962.728 19228488.426 -15390113.024 10 0 60965 49500.00000 0 6730666.133 20975184.418 -12862610.798 10 0 60965 50400.00000 0 6938799.243 22383764.320 -10085274.503 10 0 60965 51300.00000 0 7202728.457 23422461.723 -7112122.168 10 0 60965 52200.00000 0 7468619.252 24071927.124 -4000931.419 10 0 60965 53100.00000 0 7680927.013 24325898.339 -812114.159 10 0 60965 54000.00000 0 7784965.222 24191339.793 2392456.811 10 0 60965 54900.00000 0 7729442.155 23688046.444 5550646.290 10 0 60965 55800.00000 0 7468858.896 22847730.428 8601256.956 10 0 60965 56700.00000 0 6965667.596 21712629.995 11485208.405 10 0 60965 57600.00000 0 6192099.176 20333699.928 14146672.586 10 0 60965 58500.00000 0 5131583.726 18768459.746 16534144.309 10 0 60965 59400.00000 0 3779703.888 17078589.836 18601427.053 10 0 60965 60300.00000 0 2144640.959 15327375.661 20308516.117 10 0 60965 61200.00000 0 247094.434 13577106.076 21622363.124 10 0 60965 62100.00000 0 -1880322.677 11886533.331 22517508.244 10 0 60965 63000.00000 0 -4194188.955 10308499.494 22976568.837 10 0 60965 63900.00000 0 -6641835.837 8887827.019 22990575.696 10 0 60965 64800.00000 0 -9163302.097 7659560.290 22559150.685 10 0 60965 65700.00000 0 -11693602.504 6647630.509 21690522.175 10 0 60965 66600.00000 0 -14165218.422 5863999.064 20401377.367 10 0 60965 67500.00000 0 -16510708.832 5308314.888 18716553.361 10 0 60965 68400.00000 0 -18665334.748 4968100.228 16668571.626 10 0 60965 69300.00000 0 -20569588.897 4819457.396 14297023.381 10 0 60965 70200.00000 0 -22171525.839 4828267.403 11647816.264 10 0 60965 71100.00000 0 -23428795.291 4951830.625 8772295.449 10 0 60965 72000.00000 0 -24310293.201 5140880.844 5726255.150 10 0 60965 72900.00000 0 -24797360.610 5341887.880 2568858.960 10 0 60965 73800.00000 0 -24884478.949 5499551.304 -638510.326 10 0 60965 74700.00000 0 -24579431.469 5559379.109 -3833448.811 10 0 60965 75600.00000 0 -23902923.000 5470241.075 -6953753.579 10 0 60965 76500.00000 0 -22887673.308 5186787.198 -9938644.021 10 0 60965 77400.00000 0 -21577021.824 4671626.932 -12729957.349 10 0 60965 78300.00000 0 -20023102.532 3897175.052 -15273293.724 10 0 60965 79200.00000 0 -18284666.209 2847084.005 -17519087.437 10 0 60965 80100.00000 0 -16424642.337 1517200.336 -19423582.176 10 0 60965 81000.00000 0 -14507544.084 -83996.857 -20949690.533 10 0 60965 81900.00000 0 -12596826.209 -1935495.354 -22067720.546 10 0 60965 82800.00000 0 -10752307.579 -4004383.984 -22755954.896 10 0 60965 83700.00000 0 -9027766.880 -6246995.683 -23001071.576 10 0 60965 84600.00000 0 -7468812.368 -8610511.967 -22798398.232 10 0 60965 85500.00000 0 -6111114.617 -11034961.804 -22151995.678 10 0 60966 0.00000 0 -4979075.539 -13455531.145 -21074569.758 10 0 60966 900.00000 0 -4084987.635 -15805087.837 -19587213.267 10 0 60966 1800.00000 0 -3428718.537 -18016813.173 -17718985.183 10 0 60966 2700.00000 0 -2997930.152 -20026834.566 -15506334.160 10 0 60966 3600.00000 0 -2768822.681 -21776746.374 -12992379.444 10 0 60966 4500.00000 0 -2707369.497 -23215915.266 -10226063.335 10 0 60966 5400.00000 0 -2770989.031 -24303474.236 -7261192.303 10 0 60966 6300.00000 0 -2910581.448 -25009922.798 -4155385.879 10 0 60966 7200.00000 0 -3072842.740 -25318267.481 -968954.240 10 0 60966 8100.00000 0 -3202757.502 -25224656.213 2236273.377 10 0 60966 9000.00000 0 -3246164.400 -24738481.309 5398146.510 10 0 60966 9900.00000 0 -3152285.668 -23881948.112 8455394.240 10 0 60966 10800.00000 0 -2876113.799 -22689128.483 11348805.820 10 0 60966 11700.00000 0 -2380554.893 -21204539.667 14022368.770 10 0 60966 12600.00000 0 -1638238.568 -19481308.566 16424343.033 10 0 60966 13500.00000 0 -632918.433 -17578998.271 18508251.364 10 0 60966 14400.00000 0 639595.767 -15561187.377 20233767.870 10 0 60966 15300.00000 0 2171013.761 -13492902.342 21567488.638 10 0 60966 16200.00000 0 3940666.634 -11438008.942 22483570.680 10 0 60966 17100.00000 0 5916131.884 -9456670.131 22964227.799 10 0 60966 18000.00000 0 8054357.120 -7602974.820 23000074.409 10 0 60966 18900.00000 0 10303237.452 -5922834.858 22590311.012 10 0 60966 19800.00000 0 12603583.009 -4452236.570 21742747.562 10 0 60966 20700.00000 0 14891396.795 -3215918.737 20473663.707 10 0 60966 21600.00000 0 17100370.130 -2226531.511 18807507.632 10 0 60966 22500.00000 0 19164493.508 -1484311.085 16776438.006 10 0 60966 23400.00000 0 21020675.365 -977283.767 14419716.416 10 0 60966 24300.00000 0 22611260.287 -681991.174 11782960.547 10 0 60966 25200.00000 0 23886341.690 -564706.447 8917271.099 10 0 60966 26100.00000 0 24805771.833 -583090.690 5878248.284 10 0 60966 27000.00000 0 25340784.137 -688219.995 2724916.225 10 0 60966 27900.00000 0 25475158.608 -826897.347 -481424.225 10 0 60966 28800.00000 0 25205880.031 -944151.180 -3678391.696 10 0 60966 29700.00000 0 24543259.975 -985813.954 -6803745.709 10 0 60966 30600.00000 0 23510516.309 -901070.225 -9796608.560 10 0 60966 31500.00000 0 22142827.099 -644864.675 -12598662.638 10 0 60966 32400.00000 0 20485898.243 -180066.281 -15155298.580 10 0 60966 33300.00000 0 18594105.049 520704.930 -17416690.626 10 0 60966 34200.00000 0 16528286.224 1473667.651 -19338777.119 10 0 60966 35100.00000 0 14353283.501 2682946.896 -20884126.178 10 0 60966 36000.00000 0 12135330.863 4140160.221 -22022669.183 10 0 60966 36900.00000 0 9939403.530 5824541.157 -22732287.518 10 0 60966 37800.00000 0 7826638.267 7703595.482 -22999241.258 10 0 60966 38700.00000 0 5851933.154 9734263.286 -22818431.784 10 0 60966 39600.00000 0 4061827.088 11864538.337 -22193493.701 10 0 60966 40500.00000 0 2492747.000 14035476.895 -21136714.929 10 0 60966 41400.00000 0 1169694.991 16183511.844 -19668787.192 10 0 60966 42300.00000 0 105428.765 18242975.085 -17818392.455 10 0 60966 43200.00000 0 -699832.252 20148722.622 -15621634.031 10 0 60966 44100.00000 0 -1258164.931 21838752.501 -13121324.063 10 0 60966 45000.00000 0 -1593177.058 23256706.202 -10366141.854 10 0 60966 45900.00000 0 -1738752.953 24354149.175 -7409679.957 10 0 60966 46800.00000 0 -1737364.999 25092535.596 -4309397.096 10 0 60966 47700.00000 0 -1638024.028 25444775.831 -1125498.721 10 0 60966 48600.00000 0 -1493956.481 25396341.896 2080232.715 10 0 60966 49500.00000 0 -1360107.412 24945865.648 5245634.842 10 0 60966 50400.00000 0 -1290575.411 24105205.711 8309366.530 10 0 60966 51300.00000 0 -1336087.944 22898981.322 11212090.020 10 0 60966 52200.00000 0 -1541623.621 21363593.392 13897611.608 10 0 60966 53100.00000 0 -1944281.398 19545774.230 16313959.389 10 0 60966 54000.00000 0 -2571486.149 17500726.644 18414378.169 10 0 60966 54900.00000 0 -3439605.912 15289929.811 20158223.368 10 0 60966 55800.00000 0 -4553038.872 12978702.722 21511737.720 10 0 60966 56700.00000 0 -5903808.787 10633625.602 22448696.919 10 0 60966 57600.00000 0 -7471686.539 8319925.271 22950912.650 10 0 60966 58500.00000 0 -9224833.989 6098931.693 23008583.957 10 0 60966 59400.00000 0 -11120944.807 4025709.872 22620490.490 10 0 60966 60300.00000 0 -13108836.647 2146964.107 21794023.768 10 0 60966 61200.00000 0 -15130430.275 499300.568 20545055.310 10 0 60966 62100.00000 0 -17123035.201 -892080.447 18897643.233 10 0 60966 63000.00000 0 -19021848.346 -2014208.624 16883581.687 10 0 60966 63900.00000 0 -20762562.921 -2866649.975 14541800.400 10 0 60966 64800.00000 0 -22283979.550 -3461282.556 11917624.407 10 0 60966 65700.00000 0 -23530510.836 -3821550.781 9061906.882 10 0 60966 66600.00000 0 -24454474.309 -3981229.351 6030050.724 10 0 60966 67500.00000 0 -25018076.849 -3982748.703 2880937.101 10 0 60966 68400.00000 0 -25195006.132 -3875152.569 -324218.612 10 0 60966 69300.00000 0 -24971560.697 -3711774.321 -3523061.097 10 0 60966 70200.00000 0 -24347269.559 -3547731.032 -6653315.758 10 0 60966 71100.00000 0 -23334973.763 -3437342.468 -9654011.102 10 0 60966 72000.00000 0 -21960365.195 -3431585.718 -12466677.809 10 0 60966 72900.00000 0 -20261001.113 -3575694.929 -15036499.843 10 0 60966 73800.00000 0 -18284835.338 -3907009.584 -17313393.914 10 0 60966 74700.00000 0 -16088327.725 -4453164.119 -19252995.120 10 0 60966 75600.00000 0 -13734211.512 -5230697.107 -20817528.714 10 0 60966 76500.00000 0 -11289012.623 -6244140.151 -21976550.457 10 0 60966 77400.00000 0 -8820425.394 -7485626.059 -22707540.901 10 0 60966 78300.00000 0 -6394655.025 -8935033.626 -22996342.081 10 0 60966 79200.00000 0 -4073838.100 -10560663.442 -22837428.458 10 0 60966 80100.00000 0 -1913648.924 -12320416.542 -22234007.305 10 0 60966 81000.00000 0 38808.821 -14163426.398 -21197947.227 10 0 60966 81900.00000 0 1746737.991 -16032075.637 -19749536.867 10 0 60966 82800.00000 0 3184940.277 -17864312.650 -17917079.205 10 0 60966 83700.00000 0 4340612.660 -19596170.729 -15736330.004 10 0 60966 84600.00000 0 5213616.781 -21164383.949 -13249791.981 10 0 60966 85500.00000 0 5816212.251 -22508990.046 -10505879.041 10 0 60967 0.00000 0 6172267.458 -23575811.188 -7557967.675 10 0 60967 900.00000 0 6315983.505 -24318709.400 -4463352.848 10 0 60967 1800.00000 0 6290186.640 -24701521.167 -1282133.136 10 0 60967 2700.00000 0 6144263.568 -24699592.606 1923958.138 10 0 60967 3600.00000 0 5931827.542 -24300850.113 5092748.980 10 0 60967 4500.00000 0 5708214.880 -23506363.032 8162830.250 10 0 60967 5400.00000 0 5527918.001 -22330375.440 11074739.295 10 0 60967 6300.00000 0 5442063.393 -20799806.347 13772103.168 10 0 60967 7200.00000 0 5496040.658 -18953239.623 16202719.954 10 0 60967 8100.00000 0 5727382.141 -16839445.931 18319558.163 10 0 60967 9000.00000 0 6163981.987 -14515498.022 20081655.955 10 0 60967 9900.00000 0 6822729.194 -12044557.257 21454903.897 10 0 60967 10800.00000 0 7708612.003 -9493422.403 22412697.267 10 0 60967 11700.00000 0 8814331.534 -6929941.243 22936446.261 10 0 60967 12600.00000 0 10120441.594 -4420390.948 23015934.896 10 0 60967 13500.00000 0 11596010.011 -2026934.332 22649522.064 10 0 60967 14400.00000 0 13199775.435 194744.016 21844180.698 10 0 60967 15300.00000 0 14881753.111 2197524.965 20615373.820 10 0 60967 16200.00000 0 16585224.458 3944579.847 18986768.900 10 0 60967 17100.00000 0 18249029.235 5410662.252 16989794.788 10 0 60967 18000.00000 0 19810066.028 6582913.250 14663048.352 10 0 60967 18900.00000 0 21205897.616 7461146.551 12051560.743 10 0 60967 19800.00000 0 22377352.778 8057601.597 9205936.105 10 0 60967 20700.00000 0 23271015.397 8396174.718 6181378.231 10 0 60967 21600.00000 0 23841495.877 8511160.476 3036623.265 10 0 60967 22500.00000 0 24053388.276 8445556.156 -167201.246 10 0 60967 23400.00000 0 23882829.349 8249001.099 -3367768.598 10 0 60967 24300.00000 0 23318592.184 7975438.507 -6502772.774 10 0 60967 25200.00000 0 22362666.569 7680599.445 -9511151.244 10 0 60967 26100.00000 0 21030300.049 7419416.769 -12334285.687 10 0 60967 27000.00000 0 19349496.567 7243479.929 -14917155.979 10 0 60967 27900.00000 0 17359992.770 7198640.002 -17209423.711 10 0 60967 28800.00000 0 15111754.428 7322867.977 -19166422.956 10 0 60967 29700.00000 0 12663055.901 7644458.395 -20750038.105 10 0 60967 30600.00000 0 10078223.256 8180655.618 -21929451.118 10 0 60967 31500.00000 0 7425135.887 8936761.767 -22681743.324 10 0 60967 32400.00000 0 4772591.493 9905764.710 -22992340.103 10 0 60967 33300.00000 0 2187644.746 11068502.164 -22855290.125 10 0 60967 34200.00000 0 -266969.148 12394355.160 -22273374.141 10 0 60967 35100.00000 0 -2535218.781 13842441.521 -21258041.879 10 0 60967 36000.00000 0 -4569870.014 15363258.954 -19829178.935 10 0 60967 36900.00000 0 -6334202.295 16900708.241 -18014708.897 10 0 60967 37800.00000 0 -7803277.743 18394411.153 -15850039.130 10 0 60967 38700.00000 0 -8964711.864 19782225.321 -13377361.648 10 0 60967 39600.00000 0 -9818915.859 21002850.134 -10644823.291 10 0 60967 40500.00000 0 -10378802.702 21998414.052 -7705581.915 10 0 60967 41400.00000 0 -10668971.762 22716934.659 -4616767.450 10 0 60967 42300.00000 0 -10724408.454 23114548.327 -1438368.489 10 0 60967 43200.00000 0 -10588755.699 23157416.181 1767933.590 10 0 60967 44100.00000 0 -10312231.643 22823226.868 4939960.139 10 0 60967 45000.00000 0 -9949282.640 22102233.596 8016237.088 10 0 60967 45900.00000 0 -9556071.233 20997782.569 10937180.000 10 0 60967 46800.00000 0 -9187905.350 19526311.117 13646239.799 10 0 60967 47700.00000 0 -8896717.003 17716815.904 16090987.591 10 0 60967 48600.00000 0 -8728696.294 15609813.435 18224118.504 10 0 60967 49500.00000 0 -8722179.783 13255835.900 20004356.162 10 0 60967 50400.00000 0 -8905881.410 10713524.302 21397241.449 10 0 60967 51300.00000 0 -9297539.896 8047397.156 22375791.429 10 0 60967 52200.00000 0 -9903039.206 5325386.035 22921016.647 10 0 60967 53100.00000 0 -10716039.211 2616238.682 23022287.533 10 0 60967 54000.00000 0 -11718132.671 -13104.328 22677543.182 10 0 60967 54900.00000 0 -12879523.116 -2500052.317 21893338.395 10 0 60967 55800.00000 0 -14160196.685 -4788722.690 20684727.591 10 0 60967 56700.00000 0 -15511540.574 -6832018.025 19074986.917 10 0 60967 57600.00000 0 -16878342.144 -8593336.752 17095178.679 10 0 60967 58500.00000 0 -18201086.525 -10047846.827 14783565.083 10 0 60967 59400.00000 0 -19418457.771 -11183269.588 12184881.109 10 0 60967 60300.00000 0 -20469939.480 -12000141.030 9349479.152 10 0 60967 61200.00000 0 -21298405.931 -12511539.337 6332360.837 10 0 60967 62100.00000 0 -21852594.483 -12742289.885 3192113.960 10 0 60967 63000.00000 0 -22089354.295 -12727680.939 -10225.253 10 0 60967 63900.00000 0 -21975575.253 -12511744.165 -3212362.306 10 0 60967 64800.00000 0 -21489714.092 -12145172.840 -6351963.393 10 0 60967 65700.00000 0 -20622851.455 -11682966.343 -9367878.531 10 0 60967 66600.00000 0 -19379233.469 -11181901.511 -12201343.880 10 0 60967 67500.00000 0 -17776273.248 -10697939.090 -14797138.523 10 0 60967 68400.00000 0 -15844010.873 -10283676.448 -17104671.938 10 0 60967 69300.00000 0 -13624053.492 -9985955.825 -19078979.782 10 0 60967 70200.00000 0 -11168039.430 -9843730.663 -20681607.714 10 0 60967 71100.00000 0 -8535690.419 -9886281.419 -21881365.427 10 0 60967 72000.00000 0 -5792533.557 -10131857.195 -22654935.928 10 0 60967 72900.00000 0 -3007388.420 -10586801.096 -22987328.202 10 0 60967 73800.00000 0 -249724.475 -11245196.510 -22872164.764 10 0 60967 74700.00000 0 2413000.789 -12089049.159 -22311798.935 10 0 60967 75600.00000 0 4917912.174 -13088996.958 -21317260.198 10 0 60967 76500.00000 0 7209088.801 -14205517.291 -19908029.358 10 0 60967 77400.00000 0 9239639.787 -15390580.263 -18111648.563 10 0 60967 78300.00000 0 10973398.206 -16589677.682 -15963174.495 10 0 60967 79200.00000 0 12386164.272 -17744141.776 -13504485.978 10 0 60967 80100.00000 0 13466447.725 -18793655.496 -10783460.132 10 0 60967 81000.00000 0 14215680.537 -19678848.381 -7853033.665 10 0 60967 81900.00000 0 14647893.397 -20343868.493 -4770168.049 10 0 60967 82800.00000 0 14788871.798 -20738822.145 -1594739.216 10 0 60967 83700.00000 0 14674829.381 -20821978.927 1611626.325 10 0 60967 84600.00000 0 14350656.197 -20561649.550 4786746.116 10 0 60967 85500.00000 0 13867817.103 -19937657.987 7869083.848 10 0 60968 0.00000 0 13281989.905 -18942346.580 10798935.536 10 0 60968 900.00000 0 12650542.939 -17581071.714 13519578.721 10 0 60968 1800.00000 0 12029959.190 -15872170.853 15978359.183 10 0 60968 2700.00000 0 11473314.056 -13846400.508 18127700.243 10 0 60968 3600.00000 0 11027912.980 -11545869.449 19926012.237 10 0 60968 4500.00000 0 10733187.235 -9022510.412 21338487.258 10 0 60968 5400.00000 0 10618935.527 -6336152.902 22337764.695 10 0 60968 6300.00000 0 10703984.632 -3552275.693 22904455.663 10 0 60968 7200.00000 0 10995324.954 -739530.695 23027516.904 10 0 60968 8100.00000 0 11487757.349 2032860.972 22704467.348 10 0 60968 9000.00000 0 12164066.557 4697734.601 21941443.043 10 0 60968 9900.00000 0 12995714.953 7192522.043 20753088.975 10 0 60968 10800.00000 0 13944028.821 9461602.503 19162288.956 10 0 60968 11700.00000 0 14961828.935 11458367.549 17199737.559 10 0 60968 12600.00000 0 15995438.546 13146915.205 14903360.986 10 0 60968 13500.00000 0 16986985.816 14503302.953 12317596.533 10 0 60968 14400.00000 0 17876904.959 15516307.397 9492543.147 10 0 60968 15300.00000 0 18606531.378 16187658.571 6482998.406 10 0 60968 16200.00000 0 19120681.466 16531738.752 3347399.676 10 0 60968 17100.00000 0 19370107.716 16574758.051 146689.620 10 0 60968 18000.00000 0 19313724.368 16353441.297 -3056871.853 10 0 60968 18900.00000 0 18920508.091 15913281.608 -6200925.583 10 0 60968 19800.00000 0 18170991.521 15306434.688 -9224236.582 10 0 60968 20700.00000 0 17058284.632 14589343.536 -12067897.849 10 0 60968 21600.00000 0 15588578.878 13820194.943 -14676489.906 10 0 60968 22500.00000 0 13781111.065 13056316.526 -16999172.184 10 0 60968 23400.00000 0 11667587.065 12351625.681 -18990683.807 10 0 60968 24300.00000 0 9291088.478 11754239.537 -20612233.399 10 0 60968 25200.00000 0 6704507.483 11304348.016 -21832259.917 10 0 60968 26100.00000 0 3968575.094 11032440.664 -22627049.399 10 0 60968 27000.00000 0 1149565.266 10957962.590 -22981195.597 10 0 60968 27900.00000 0 -1683229.194 11088456.357 -22887895.795 10 0 60968 28800.00000 0 -4460143.450 11419225.778 -22349076.520 10 0 60968 29700.00000 0 -7113799.864 11933535.280 -21375347.294 10 0 60968 30600.00000 0 -9581669.056 12603335.683 -19985784.016 10 0 60968 31500.00000 0 -11808426.571 13390484.895 -18207546.875 10 0 60968 32400.00000 0 -13748007.834 14248411.169 -16075340.945 10 0 60968 33300.00000 0 -15365276.966 15124147.851 -13630730.572 10 0 60968 34200.00000 0 -16637241.370 15960653.075 -10921321.561 10 0 60968 35100.00000 0 -17553763.246 16699315.909 -7999827.607 10 0 60968 36000.00000 0 -18117740.388 17282542.815 -4923039.668 10 0 60968 36900.00000 0 -18344750.840 17656315.113 -1750718.776 10 0 60968 37800.00000 0 -18262178.483 17772609.564 1455565.809 10 0 60968 38700.00000 0 -17907858.253 17591580.199 4633630.333 10 0 60968 39600.00000 0 -17328299.560 17083409.736 7721878.885 10 0 60968 40500.00000 0 -16576563.907 16229753.038 10660491.164 10 0 60968 41400.00000 0 -15709886.732 15024712.149 13392573.065 10 0 60968 42300.00000 0 -14787143.823 13475302.189 15865248.386 10 0 60968 43200.00000 0 -13866268.647 11601388.468 18030671.410 10 0 60968 44100.00000 0 -13001728.550 9435097.051 19846941.825 10 0 60968 45000.00000 0 -12242165.020 7019722.623 21278905.393 10 0 60968 45900.00000 0 -11628296.063 4408178.053 22298826.031 10 0 60968 46800.00000 0 -11191167.722 1661048.622 22886917.304 10 0 60968 47700.00000 0 -10950827.319 -1155669.936 23031723.787 10 0 60968 48600.00000 0 -10915473.574 -3973057.694 22730345.330 10 0 60968 49500.00000 0 -11081119.153 -6721879.941 21988499.867 10 0 60968 50400.00000 0 -11431780.215 -9335213.402 20820423.103 10 0 60968 51300.00000 0 -11940185.768 -11750981.987 19248606.161 10 0 60968 52200.00000 0 -12568978.186 -13914298.157 17303375.037 10 0 60968 53100.00000 0 -13272355.725 -15779513.455 15022318.595 10 0 60968 54000.00000 0 -13998089.222 -17311893.358 12449574.656 10 0 60968 54900.00000 0 -14689829.197 -18488846.670 9634986.543 10 0 60968 55800.00000 0 -15289606.812 -19300657.815 6633145.245 10 0 60968 56700.00000 0 -15740423.447 -19750690.935 3502334.889 10 0 60968 57600.00000 0 -15988819.208 -19855056.674 303401.516 10 0 60968 58500.00000 0 -15987310.959 -19641755.214 -2901432.781 10 0 60968 59400.00000 0 -15696595.427 -19149331.392 -6049786.868 10 0 60968 60300.00000 0 -15087422.470 -18425098.623 -9080344.205 10 0 60968 61200.00000 0 -14142057.314 -17523006.984 -11934058.122 10 0 60968 62100.00000 0 -12855267.929 -16501246.156 -14555314.003 10 0 60968 63000.00000 0 -11234793.873 -15419685.456 -16893024.491 10 0 60968 63900.00000 0 -9301275.120 -14337260.191 -18901635.160 10 0 60968 64800.00000 0 -7087642.419 -13309415.863 -20542020.173 10 0 60968 65700.00000 0 -4637993.762 -12385719.099 -21782249.827 10 0 60968 66600.00000 0 -2006003.387 -11607736.907 -22598214.681 10 0 60968 67500.00000 0 747070.401 -11007274.151 -22974094.121 10 0 60968 68400.00000 0 3554695.457 -10605043.547 -22902660.467 10 0 60968 69300.00000 0 6347597.584 -10409823.943 -22385413.149 10 0 60968 70200.00000 0 9056408.256 -10418141.623 -21432540.929 10 0 60968 71100.00000 0 11614318.023 -10614487.064 -20062713.568 10 0 60968 72000.00000 0 13959625.250 -10972056.848 -18302707.683 10 0 60968 72900.00000 0 16038074.563 -11453988.155 -16186874.778 10 0 60968 73800.00000 0 17804888.386 -12015032.506 -13756462.437 10 0 60968 74700.00000 0 19226407.996 -12603596.959 -11058802.535 10 0 60968 75600.00000 0 20281277.108 -13164065.609 -8146382.869 10 0 60968 76500.00000 0 20961120.305 -13639302.597 -5075820.731 10 0 60968 77400.00000 0 21270689.855 -13973230.399 -1906758.936 10 0 60968 78300.00000 0 21227476.775 -14113374.258 1299293.914 10 0 60968 79200.00000 0 20860804.380 -14013265.300 4480156.150 10 0 60968 80100.00000 0 20210444.074 -13634601.102 7574175.492 10 0 60968 81000.00000 0 19324812.900 -12949072.832 10521418.059 10 0 60968 81900.00000 0 18258829.509 -11939782.319 13264821.284 10 0 60968 82800.00000 0 17071519.078 -10602189.591 15751288.979 10 0 60968 83700.00000 0 15823467.748 -8944551.088 17932708.232 10 0 60968 84600.00000 0 14574232.919 -6987829.812 19766869.505 10 0 60968 85500.00000 0 13379817.232 -4765080.502 21218273.232 99